Theta_e
304 304 304 303 303 304 301 297 286 297 302 287 285 286 286 291 294 297 297 296 294 291 293 291 292 291 297 301 297 292 294 290 284 287 291 296 296 293 293 288 285 289 287 288
304 304 304 303 304 303 299 290 289 297 298 282 284 286 287 291 294 295 295 294 296 297 294 290 295 295 299 300 296 294 293 288 282 283 289 291 291 293 294 294 290 287 285 289
304 304 304 303 303 303 299 291 285 287 291 289 286 285 286 287 296 296 297 295 296 294 292 294 292 293 295 298 297 297 295 289 287 283 286 289 286 290 292 292 286 288 288 292
305 304 303 302 304 302 298 292 287 287 283 285 288 286 287 287 288 292 296 292 292 292 288 289 288 289 290 296 297 295 294 287 289 290 291 290 288 288 290 290 291 288 291 291
304 304 303 304 303 300 294 288 286 288 286 287 287 285 285 286 288 290 291 291 293 293 289 291 288 290 291 290 294 292 294 287 289 285 289 290 288 290 291 291 292 292 292 291
303 303 303 304 303 298 293 293 293 291 286 286 286 286 286 288 292 292 295 295 294 293 294 295 296 296 294 294 292 291 291 289 287 284 287 287 284 287 289 291 293 293 289 294
303 303 303 302 301 297 296 294 292 289 284 286 286 288 287 289 290 290 292 296 295 295 298 298 297 295 294 293 293 295 288 287 287 282 285 277 289 294 294 291 293 294 294 295
303 303 302 301 299 298 296 295 292 290 283 286 286 289 288 289 291 290 291 292 295 299 295 288 286 285 286 284 291 293 294 289 285 283 282 287 289 290 291 290 290 295 294 295
302 302 301 301 299 298 296 294 294 292 286 283 286 287 290 288 286 287 286 293 298 298 292 287 284 282 284 282 284 288 291 293 288 284 282 278 288 293 295 295 284 296 296 296
301 302 301 301 300 298 297 293 294 293 285 286 286 285 287 290 290 287 287 288 289 292 288 286 286 284 288 281 280 281 284 286 284 285 284 288 291 293 295 284 287 294 296 297
301 301 301 300 299 298 297 292 294 293 286 285 286 287 285 287 291 288 287 290 289 287 287 287 286 285 285 285 287 285 284 284 284 285 283 280 293 291 288 294 294 294 294 295
300 300 300 300 299 298 297 292 294 295 287 285 288 288 288 287 287 290 289 290 287 296 289 287 286 284 285 286 281 288 285 289 287 288 288 292 293 293 295 295 296 294 296 295
299 299 299 299 298 297 297 291 291 293 285 287 288 285 289 290 288 289 290 290 293 292 296 290 287 285 290 285 287 287 288 293 290 288 291 291 292 291 292 292 294 293 294 293
299 299 299 298 298 297 295 290 291 291 287 284 284 290 288 290 292 292 292 292 293 293 294 288 285 285 288 289 289 291 290 290 288 288 287 289 290 292 292 290 291 290 289 290
298 299 298 297 297 296 295 294 292 292 287 283 284 286 287 289 291 289 290 290 290 289 287 286 285 287 287 285 288 288 290 290 287 287 291 293 292 292 291 289 289 289 288 287
297 297 296 294 292 291 294 285 291 291 289 286 280 284 284 286 289 288 287 286 285 285 285 285 285 286 287 286 285 287 290 291 293 292 293 292 291 291 292 290 289 288 287 286
296 296 296 295 295 292 285 283 287 290 289 285 280 281 284 285 287 287 286 288 286 287 285 284 284 284 287 286 286 284 285 291 291 289 289 286 288 286 288 286 284 282 280 280
295 295 294 294 293 292 286 288 290 288 286 285 279 278 282 284 283 283 285 284 287 283 284 285 283 284 284 280 278 276 275 284 283 284 288 288 286 284 282 282 282 280 279 279
292 290 289 290 285 284 284 289 287 287 285 278 278 277 276 283 282 283 284 283 281 283 282 281 282 281 277 272 272 270 269 271 272 279 282 282 281 280 280 281 280 278 277 276
288 288 285 280 282 285 285 283 282 278 277 278 274 273 276 280 280 280 281 280 277 277 277 280 281 273 270 269 267 267 267 268 270 280 278 278 277 276 274 273 273 274 273 272
283 281 280 283 283 284 279 273 273 272 272 271 271 273 275 280 278 277 277 277 275 275 276 276 277 275 269 267 265 264 264 266 266 269 270 271 275 273 271 269 267 267 266 265
280 280 278 281 275 276 272 266 269 269 266 268 268 272 274 278 279 279 276 274 274 272 273 276 273 267 262 263 262 261 261 262 262 264 264 265 265 267 267 265 264 263 262 261
281 277 272 273 270 266 266 264 267 268 265 266 266 270 274 279 278 275 275 273 271 272 273 273 268 262 260 259 259 260 259 260 261 261 262 262 261 260 261 260 260 262 260 259
269 270 263 265 265 264 263 263 263 264 264 263 264 267 273 276 275 274 272 269 270 270 268 270 263 257 256 257 257 257 257 257 258 257 259 259 259 258 257 257 257 258 258 258
267 269 261 262 260 261 260 260 261 263 262 263 266 269 271 275 273 271 269 268 268 270 269 263 259 255 255 255 255 254 254 254 255 256 256 256 256 257 257 255 255 256 256 257
264 260 263 260 263 262 261 260 261 262 261 263 264 268 271 271 271 270 269 269 268 267 260 257 257 254 253 253 253 253 253 253 254 255 255 256 255 254 255 255 255 254 255 255
261 257 253 256 259 259 259 257 260 261 260 265 265 269 267 270 269 268 266 267 261 258 256 255 254 254 253 252 252 252 252 252 253 253 254 254 254 254 255 257 256 254 255 254
Wind_Speed
24 23 22 18 17 15 9 4 3 1 2 4 2 3 4 6 22 19 10 20 20 30 29 19 14 23 14 25 21 17 4 7 12 20 4 9 15 14 15 7 7 9 3 10
22 20 20 18 18 14 4 4 2 2 1 4 5 2 3 10 24 24 24 18 13 23 22 14 15 19 12 27 24 22 12 7 11 7 7 7 22 17 19 11 1 7 6 8
19 17 17 16 15 10 2 3 3 3 2 2 4 2 4 6 17 14 17 17 21 22 18 11 15 15 11 25 26 11 7 8 10 13 6 15 15 21 18 18 6 12 15 22
21 18 15 13 14 10 2 0 2 0 6 5 6 2 3 9 11 4 12 11 20 26 15 11 10 13 7 17 18 8 8 6 9 7 10 18 17 19 21 22 29 16 21 23
18 17 14 13 14 7 2 4 3 1 1 5 8 3 4 7 7 13 17 19 28 23 22 15 25 18 20 20 18 15 11 5 9 2 4 12 11 16 23 29 29 23 22 24
17 16 14 13 13 3 2 1 1 2 3 6 7 6 1 9 14 7 6 19 25 21 20 12 16 13 11 13 18 19 12 5 4 5 6 6 1 24 23 24 25 25 23 32
18 16 13 11 9 2 1 1 2 2 3 4 5 9 10 14 6 5 3 22 13 9 28 23 16 15 11 17 15 12 9 6 4 4 4 6 19 13 23 25 23 27 28 25
16 13 11 10 7 5 2 2 1 2 3 2 3 7 11 11 8 4 4 5 4 19 20 13 9 4 6 6 1 16 14 8 6 7 11 5 14 10 13 19 22 22 24 25
13 13 11 11 11 8 4 3 2 0 3 3 3 3 6 5 4 2 4 4 5 4 4 5 10 8 8 7 4 3 4 12 5 6 7 13 8 16 9 8 22 15 21 19
12 13 11 9 8 8 4 3 3 1 4 3 4 1 2 1 4 4 1 1 2 2 3 5 6 4 6 11 15 10 7 3 15 6 6 7 4 8 15 12 5 5 14 17
12 12 12 10 8 6 3 2 5 2 3 3 6 5 3 1 3 6 4 5 2 3 5 4 4 5 8 6 12 13 12 12 8 6 9 21 7 8 19 8 3 3 1 1
11 11 10 10 8 6 2 2 2 5 5 3 1 3 5 4 5 3 1 1 4 4 6 2 5 3 4 7 7 3 11 11 8 14 12 2 8 6 6 3 3 4 3 3
12 11 9 10 11 12 6 3 5 3 3 3 1 4 5 5 5 5 0 2 2 4 5 4 3 5 3 7 5 7 3 8 5 5 8 5 8 2 0 2 3 3 1 3
13 12 9 10 11 13 8 6 5 2 2 3 4 4 4 11 8 2 2 2 4 5 3 3 3 4 2 3 5 3 3 9 6 4 3 3 0 5 7 6 5 7 5 3
13 13 14 17 18 19 12 7 6 6 2 3 2 2 6 10 9 12 10 7 4 3 3 2 2 4 3 2 2 3 6 6 10 11 13 9 7 11 10 10 8 7 7 5
15 16 14 8 5 2 2 4 5 10 5 2 2 1 5 6 9 11 10 6 4 3 2 3 3 2 1 5 4 4 4 2 4 2 6 3 11 11 10 10 9 7 8 8
14 12 11 10 14 9 6 4 7 13 4 2 3 2 4 5 4 4 4 4 3 2 2 2 2 2 2 0 3 6 9 3 4 9 8 7 8 7 10 12 12 11 11 9
19 19 18 17 17 12 4 4 14 8 2 3 3 2 1 7 4 2 4 3 1 4 2 2 2 1 1 1 6 7 11 5 9 10 4 7 13 14 13 11 11 11 9 7
10 7 4 4 8 4 3 20 10 3 5 3 3 3 3 6 3 2 1 2 2 2 2 3 2 2 1 3 4 7 11 7 10 10 8 10 12 13 10 10 9 10 8 6
4 5 4 4 3 15 10 4 5 7 6 6 5 1 3 4 3 3 2 2 3 2 3 3 2 3 6 6 6 6 8 10 13 2 6 7 10 8 8 10 8 8 8 6
5 4 3 2 10 1 4 4 5 5 4 6 4 3 4 5 3 3 4 1 2 1 3 3 1 3 5 6 7 8 10 10 12 10 10 11 8 8 9 8 7 7 7 5
3 4 1 2 7 4 6 3 3 7 4 6 5 5 4 3 3 1 3 2 1 1 3 2 2 5 6 6 8 10 11 11 11 12 12 12 12 10 8 7 6 6 6 6
2 5 6 6 5 9 6 4 3 2 7 6 6 3 4 2 1 2 1 1 2 2 1 2 3 4 6 7 7 7 10 11 11 12 11 10 10 11 10 7 6 5 6 6
6 6 7 5 3 4 3 3 3 3 4 7 6 4 4 2 1 1 1 2 1 0 2 2 3 3 4 6 7 7 9 10 10 10 10 9 8 7 7 6 5 5 5 5
6 4 5 5 2 2 3 2 3 3 6 5 3 4 2 1 1 3 2 2 3 3 1 3 3 3 4 5 6 7 7 7 7 7 6 6 6 4 4 5 5 4 3 4
5 8 3 2 1 2 2 4 3 5 6 4 2 3 3 2 3 2 2 2 2 1 3 2 1 2 3 3 4 4 4 5 5 5 5 5 5 4 4 3 3 4 4 4
5 4 1 2 1 3 2 2 4 6 4 2 3 2 3 3 2 2 2 2 3 3 2 2 2 2 2 3 4 4 4 5 5 5 5 6 6 4 3 2 2 4 3 2
Wind_Direction
174 172 167 170 162 154 153 171 151 100 166 112 241 240 176 225 165 176 174 167 158 167 170 160 161 180 157 172 164 172 122 110 151 185 108 216 207 183 187 191 191 236 329 256
177 175 168 165 162 160 154 105 93 44 296 203 223 217 212 198 170 175 158 159 171 162 166 146 179 166 173 163 179 169 160 126 120 150 264 208 211 206 209 229 346 198 194 263
174 167 167 164 169 163 71 139 122 60 277 265 241 231 169 162 203 166 165 159 141 146 164 111 177 144 163 172 182 139 116 154 167 186 181 153 195 208 208 208 208 206 218 241
167 163 167 167 166 154 124 85 155 221 170 207 193 349 169 175 179 323 159 150 158 149 139 136 140 129 140 171 176 147 163 152 198 190 174 176 194 199 193 207 227 212 234 240
170 159 163 162 147 141 79 154 177 149 52 124 204 184 236 177 153 173 181 164 164 160 163 178 177 152 159 168 183 177 179 163 170 90 141 182 194 193 201 212 226 236 253 267
155 153 158 154 147 159 131 138 100 277 146 173 175 192 181 174 201 245 186 170 159 170 180 105 143 138 121 145 171 174 162 117 123 173 145 111 350 212 204 217 223 223 237 243
152 150 145 145 153 138 86 111 117 232 176 200 193 161 197 187 220 330 260 163 146 109 101 85 68 64 108 142 164 178 135 115 95 115 115 198 242 204 209 214 221 223 242 255
135 135 130 130 130 129 113 123 201 197 128 78 99 157 184 182 232 348 340 53 86 140 104 104 98 29 68 359 211 185 193 154 145 155 199 313 264 193 211 206 239 225 234 248
126 118 111 104 100 103 85 64 302 38 142 58 333 76 164 158 130 69 344 326 134 38 101 110 141 167 138 163 114 12 209 197 164 151 195 215 235 168 166 151 262 219 224 239
120 116 108 100 92 94 95 64 347 54 96 36 356 69 177 84 114 100 176 160 59 341 130 122 140 126 117 156 163 164 170 141 204 179 224 265 160 152 144 189 260 235 216 231
115 110 106 96 78 80 96 57 18 53 91 48 14 16 18 354 183 165 161 140 334 30 101 124 147 135 185 140 158 171 167 170 191 199 223 253 151 151 188 207 72 75 109 171
105 106 92 84 66 57 113 87 36 39 80 101 37 86 49 11 335 325 285 91 177 168 114 143 103 108 151 133 178 220 190 199 166 188 209 168 179 193 218 86 117 176 202 189
112 102 85 74 68 57 83 87 7 58 98 104 65 0 344 357 342 287 274 343 36 49 27 123 138 144 159 167 179 127 236 201 195 121 204 184 170 154 28 135 164 135 108 119
110 104 92 78 77 74 81 68 356 36 76 86 59 324 21 320 336 3 358 44 65 76 36 93 122 130 248 183 130 175 143 136 156 268 91 58 254 201 182 155 129 124 93 93
103 102 103 98 90 91 90 84 53 34 13 101 82 246 4 1 25 31 36 44 54 48 85 103 125 99 129 7 68 199 189 165 193 223 165 199 193 172 146 156 158 142 129 109
100 108 103 66 49 22 49 65 52 14 359 102 83 325 349 353 12 30 33 28 32 58 84 86 93 38 289 170 187 66 73 356 355 294 101 128 132 133 149 145 133 98 88 98
93 94 83 72 65 54 55 56 337 336 307 95 122 77 15 348 346 31 9 26 41 27 88 66 88 82 348 202 137 50 15 58 98 120 117 104 163 145 117 112 98 84 77 64
96 88 85 82 93 105 54 359 348 347 94 40 86 49 62 8 19 33 352 10 2 27 51 104 75 101 46 75 44 16 4 14 39 3 1 93 107 102 98 101 108 95 89 92
89 80 82 56 33 32 316 320 322 26 45 88 51 17 60 346 23 351 43 323 52 310 49 53 315 153 119 45 357 24 8 0 321 326 76 88 95 100 93 101 87 101 100 88
58 37 32 58 1 312 302 2 16 23 3 20 60 285 34 330 359 44 339 13 25 17 48 296 20 69 82 40 40 14 12 359 340 150 75 83 86 78 76 71 67 79 90 82
34 36 48 321 316 336 33 53 36 340 55 13 352 352 11 22 5 31 12 40 351 323 44 321 95 145 90 45 30 12 16 21 23 36 45 28 59 100 101 80 64 63 64 59
62 81 104 357 21 23 56 32 2 29 38 346 332 348 343 335 326 309 23 36 279 155 330 291 260 84 61 39 23 20 14 19 40 36 45 38 38 36 67 70 64 56 61 48
31 41 44 5 339 43 22 15 59 55 354 10 346 335 332 291 348 56 355 344 37 292 261 271 28 52 36 17 10 19 22 21 32 39 41 48 52 42 43 55 28 34 52 34
55 25 32 26 40 65 34 1 358 19 321 334 316 283 323 348 43 5 163 36 308 218 252 249 64 40 12 19 20 22 11 15 27 28 25 30 35 54 50 45 24 17 32 15
55 25 51 53 52 47 14 327 294 12 319 314 297 255 264 316 104 37 128 174 217 228 266 52 51 10 14 32 21 17 15 12 13 11 18 21 14 21 49 28 22 30 22 18
53 39 111 53 238 75 34 3 350 6 332 300 263 304 304 34 350 233 249 250 228 66 42 43 17 15 20 22 18 9 357 3 357 354 351 351 7 4 352 332 15 13 5 347
50 59 42 359 57 38 7 335 343 335 298 358 303 297 20 300 248 219 353 327 17 15 28 17 21 14 32 359 342 352 349 357 357 349 350 339 326 306 285 272 7 334 308 277